Regional Weather Roundup
Issued by NWS

Home | Current Version | Previous Version | Graphics & Text | Print | Product List | Glossary On
Versions: 1 2 3 4 5 6 7 8 9 10 11 12 13 14 15 16 17 18 19 20 21 22 23 24 25 26 27 28 29 30 31 32 33 34 35 36 37 38 39 40 41 42 43 44 45 46 47 48 49 50
000
ASUS44 KMEG 280510
RWRTN
TENNESSEE HOURLY STATE WEATHER ROUNDUP
NATIONAL WEATHER SERVICE MEMPHIS TN
1200 AM CDT SAT MAY 28 2016

TNZ002-004-019-021-049-052-054-088>092-280600-
WEST TENNESSEE

CITY           SKY/WX    TMP DP  RH WIND       PRES   REMARKS
MEMPHIS INTL   CLOUDY    71  66  84 S7        29.89S
NWS MEMPHIS      N/A     68 N/A N/A MISG        N/A
JACKSON        CLOUDY    75  63  66 S8        29.92R
DYERSBURG      CLOUDY    72  64  78 S6        29.91R
UNION CITY     CLEAR     72  66  83 S6        29.91R
PARIS          CLEAR     72  64  78 S6        29.94R
LEXINGTON      CLEAR     75  63  64 S8        29.94S
$$

TNZ008-025-027-028-033-062-065-066-280600-
NORTH MIDDLE TENNESSEE

CITY           SKY/WX    TMP DP  RH WIND       PRES   REMARKS
NASHVILLE      CLOUDY    75  62  64 SE6       30.00F
CLARKSVILLE    CLEAR     74  64  71 SE8       29.96S
SMYRNA         CLOUDY    74  64  70 SE5       30.02F
COOKEVILLE     CLEAR     70  66  88 CALM      30.05S
CROSSVILLE     CLEAR     71  60  68 SE6       30.11F
$$

TNZ061-075-076-078-094-096-097-280600-
SOUTH MIDDLE TENNESSEE

CITY           SKY/WX    TMP DP  RH WIND       PRES   REMARKS
FAYETTEVILLE   PTCLDY    72  68  88 SE5       30.03F
TULLAHOMA      PTCLDY    70  70 100 SE5       30.05F
WINCHESTER     CLEAR     72  66  83 CALM      30.05F
MCMINNVILLE    CLEAR     72  70  94 CALM      30.05F
COLUMBIA       CLEAR     73  73 100 SE5       29.98F
SHELBYVILLE    CLEAR     72  68  88 SE6       30.03F
$$

TNZ017-018-042-046-047-280600-
NORTHEAST TENNESSEE

CITY           SKY/WX    TMP DP  RH WIND       PRES   REMARKS
TRI CITIES     PTCLDY    63  62  97 CALM      30.14S FOG
$$

TNZ012-013-036-069-073-074-280600-
CENTRAL EAST TENNESSEE

CITY           SKY/WX    TMP DP  RH WIND       PRES   REMARKS
KNOXVILLE      CLOUDY    67  66  97 CALM      30.09S FOG
OAK RIDGE      CLOUDY    68  66  93 CALM      30.10F
GATLINBURG     CLEAR     64  64 100 CALM      30.09S
$$

TNZ083-085-099-280600-
SOUTHEAST TENNESSEE

CITY           SKY/WX    TMP DP  RH WIND       PRES   REMARKS
CHATTANOOGA    PTCLDY    76  60  57 CALM      30.07S
$$

SKY/WX REPORTED AS FAIR MEANS FEW OR NO CLOUDS BELOW
12 THOUSAND FEET.





USA.gov is the U.S. government's official web portal to all federal, state and local government web resources and services.